sat.trackr.live / text

‹ back to catalog

STARLINK-35047

NORAD 65806 · 2025-218R

PAYLOAD ACTIVE UNKNOWN

§ Identity

Operator
Country
US
Launch date
2025-09-26
Launch site
AFWTR
Launch vehicle
Mass (kg)
RCS (m²)

Purposes: comms

External: N2YO · Heavens-Above · Gunter

§ Orbital elements

Epoch: 2026-09-20T13:06:44.893152Z

Period
93.91 min
Inclination
97.2859°
Eccentricity
0.0002122
Mean motion
15.33456764 rev/d
Perigee alt
464.1 km
Apogee alt
467.0 km
Semi-major
6,843.6 km
B*
4.0189e-4
RAAN
120.9639°
Arg perigee
87.1506°
Mean anomaly
272.9980°
Rev number
5,434

§ Raw data

STARLINK-350471 65806U 25218R   26263.54635293  .00012927  00000+0  40189-3 0  99942 65806  97.2859 120.9639 0002122  87.1506 272.9980 15.33456764 54348

JSON: /api/v1/satellites/65806 · /tle

For live sub-satellite position, see the globe view (requires WebGL).

§ Visibility from observer

Set your observer location to see the next 7 days of passes ≥ 10°. The values pass through the URL so the page stays shareable.

No JS? Fill the form by hand. The geolocation button needs JavaScript.